Showing default

QUICK3, 64558

Orbit data source: Space-Track

QUICK3, 64558 is a Lithuanian payload satellite in SSO that was launched on Mon, 23 Jun 2025 UTC via an FALCON 9 launch vehicle from the Air Force Western Test Range (AFWTR). Payload-class satellites include a variety of spacecraft equipped with specific instruments for various scientific and technological missions. These include communications satellites like Starlink; space stations such as the ISS; scientific satellites like the Hubble; Earth observation satellites from companies like Planet Labs, Umbra, and HawkEye 360; GPS; miniature CubeSats for education and research; and military/defense satellites.

Loading next visibility...
Identifier
64558, 2025-135AG
Orbit
SSO
Country
Flag of LTLT / LTU
Related business
Manufacturer
NANAV/JENAU
Mission
Operational Amateur Technology
Bus & Motor
CUBESAT 3U, Unknown motor
Mass
5 kg wet, 5 kg dry
Launch date (UTC)
2025-06-23 (7 months ago)
Launch vehicle
FALCON 9
Launch site
Air Force Western Test Range (AFWTR)
Object type
Payload
Rocket body
Debris
Shape & HBR
Box + 1 Rod, 1.5 m
Radar Cross Section
0.035 m², Medium (>0.1 m² and < 1m²)

Expand to show TLE details & history
Last TLE update: 10 hours ago

TLE from 10 hours ago
0 QUICK3
1 64558U 25135AG  26035.81131497  .00017941  00000-0  75490-3 0  9994
2 64558  97.4605 152.5622 0004730 264.3096  95.7602 15.23433534 34670
Epoch: 2026-02-04T19:28Z
TLE epoch observation values (Epoch: 2026-02-04T19:28:17.613Z)
Latitude
0.00003°
Longitude
85.51627°
Altitude
498.915 km
Speed
7.615 km/s
True Right ascension
10h 10m 14s
True Declination
0° 00' 00"
Sunlit
Object was in full shadow at epoch
Visualization orbit readout
Latitude
Unknown
Longitude
Unknown
Altitude
Unknown
Speed
Unknown
Apparent Right ascension
Unknown
Apparent Declination
Unknown
Sunlit
N/A
Visualization observer readout
Local Sidereal Time
07:52:48
Azimuth
Unknown
Elevation
Unknown
Doppler factor
Unknown
Orbital elements
Apogee altitude
495.707 km
Perigee altitude
489.207 km
Semi-major axis
6,870.594 km
Eccentricity
0.00047
Inclination
97.4605°
RAAN
152.5622°
Arg. of periapsis
264.3096°
True anomaly
95.81412°
Mean anomaly
95.7602°
Eccentric anomaly
95.78716°
Mean motion
3.81111 °/min
Orbital period
94.46 mins
BSTAR
0.0007549
Loading maneuver chart data...
Computing Atmospheric mass density...
Loading historical data...
Loading historical data...
Loading historical data...
Loading historical data...
Loading historical data...
Loading historical data...
Loading historical data...

Documentation

Showing up to 5 results
|